Location: Le Hiès Ruisseau
(43.3000°N, 0.4500°W)
Time: 03:27:56
(UTC+00:00)

Spot 1 - Pass Details

Date: 28 January 2023
Orbit: 575 x 772 km, 98.8° (Epoch: 27 March)

Event Time Altitude Azimuth Distance (km) Brightness Sun altitude
Exits shadow 18:43:50 37° 81° (E) 917 4.4 -17.5°
Maximum altitude 18:44:19 38° 99° (E) 890 4.4 -17.6°
Drops below altitude 10° 18:48:07 10° 169° (SSE) 1,879 6.5 -18.3°
Sets 18:50:20 0° 177° (S) 2,771 7.5 -18.7°
